RYR5094 LEMG-EDDN

Flight info

Callsign RYR5094
Flight time N/A
Altitude 34000
Route BLN L27 CJN/N0454F360 L27 YAKXU DCT RONNY DCT TOPTU DCT TOU DCT GAI DCT MEN DCT NINUN DCT LATAM DCT ETREK DCT LTP DCT SOPLO DCT OMASI DCT KINNI DCT SOSAL DCT KORED DCT BERSU DCT DITON/N0445F370 DCT LOKTA DCT TEDGO N869 LETKU LETKU1V
Aircraft B738/M-SDE2E3FGHIRWXY/LB1

Departure

Time 2026-05-04 18:08
Airport Málaga-Costa del Sol Airport (LEMG)

Arrival

Time N/A
Airport Nuremberg Airport (EDDN)
Time Latitude Longitude Altitude Speed Heading
2026-05-04 18:07 36.67744 -4.47727 31 ft 5 kts 54°
2026-05-04 18:07 36.67772 -4.47701 32 ft 6 kts 19°
2026-05-04 18:07 36.67809 -4.47713 32 ft 7 kts 317°
2026-05-04 18:07 36.67823 -4.47737 34 ft 0 kts 300°
2026-05-04 18:08 36.67904 -4.47925 37 ft 63 kts 297°
2026-05-04 18:08 36.68233 -4.48711 39 ft 139 kts 298°
2026-05-04 18:08 36.68761 -4.50005 316 ft 181 kts 296°
2026-05-04 18:08 36.69302 -4.51391 1320 ft 176 kts 296°
2026-05-04 18:09 36.70448 -4.54131 3095 ft 186 kts 301°
2026-05-04 18:09 36.72553 -4.56288 3660 ft 203 kts 320°
2026-05-04 18:10 36.73630 -4.57448 4035 ft 206 kts 317°
2026-05-04 18:10 36.74677 -4.58690 4404 ft 209 kts 317°
2026-05-04 18:10 36.75961 -4.59549 4741 ft 214 kts 343°
2026-05-04 18:10 36.77407 -4.60023 5097 ft 218 kts 342°
2026-05-04 18:11 36.78883 -4.60559 5335 ft 222 kts 341°
2026-05-04 18:11 36.80409 -4.61075 5592 ft 233 kts 350°
2026-05-04 18:11 36.82040 -4.60775 5970 ft 250 kts 23°
2026-05-04 18:11 36.83463 -4.59456 6431 ft 259 kts 40°
2026-05-04 18:12 36.84816 -4.57961 6972 ft 263 kts 40°
2026-05-04 18:12 36.86201 -4.56423 7448 ft 269 kts 38°
2026-05-04 18:12 36.87140 -4.55378 7883 ft 268 kts 38°
2026-05-04 18:12 36.88552 -4.53812 8371 ft 275 kts 38°
2026-05-04 18:13 36.89980 -4.52231 8918 ft 280 kts 38°
2026-05-04 18:13 36.91472 -4.50580 9513 ft 284 kts 38°
2026-05-04 18:13 36.94474 -4.47266 9994 ft 290 kts 38°
2026-05-04 18:14 36.96000 -4.45584 10294 ft 295 kts 38°
2026-05-04 18:14 36.97537 -4.43889 10910 ft 293 kts 38°
2026-05-04 18:14 36.99108 -4.42296 11392 ft 299 kts 31°
2026-05-04 18:15 37.02903 -4.39360 11692 ft 336 kts 22°
2026-05-04 18:15 37.07358 -4.36777 12157 ft 366 kts 19°
2026-05-04 18:15 37.09711 -4.35472 12649 ft 373 kts 19°
2026-05-04 18:16 37.12090 -4.34140 13294 ft 376 kts 19°
2026-05-04 18:16 37.14481 -4.32785 13896 ft 380 kts 19°
2026-05-04 18:16 37.16903 -4.31401 14461 ft 384 kts 20°
2026-05-04 18:17 37.21795 -4.28577 15680 ft 390 kts 20°
2026-05-04 18:17 37.24271 -4.27139 16264 ft 394 kts 20°
2026-05-04 18:17 37.29293 -4.24216 17445 ft 401 kts 20°
2026-05-04 18:18 37.31835 -4.22733 18008 ft 405 kts 20°
2026-05-04 18:18 37.34402 -4.21235 18544 ft 408 kts 20°
2026-05-04 18:18 37.36990 -4.19723 19007 ft 411 kts 20°
2026-05-04 18:18 37.39594 -4.18201 19530 ft 414 kts 20°
2026-05-04 18:19 37.44851 -4.15124 20594 ft 419 kts 20°
2026-05-04 18:19 37.47507 -4.13568 21057 ft 423 kts 20°
2026-05-04 18:19 37.50179 -4.12002 21530 ft 426 kts 20°
2026-05-04 18:20 37.52878 -4.10419 21982 ft 429 kts 20°
2026-05-04 18:20 37.55591 -4.08826 22451 ft 432 kts 20°
2026-05-04 18:20 37.58319 -4.07223 22939 ft 434 kts 20°
2026-05-04 18:20 37.61065 -4.05607 23391 ft 437 kts 19°
2026-05-04 18:21 37.63836 -4.03977 23784 ft 440 kts 19°
2026-05-04 18:21 37.66617 -4.02338 24171 ft 443 kts 19°
2026-05-04 18:21 37.69414 -4.00689 24546 ft 445 kts 19°
2026-05-04 18:21 37.72230 -3.99027 24895 ft 448 kts 19°
2026-05-04 18:22 37.75054 -3.97359 25233 ft 450 kts 19°
2026-05-04 18:22 37.77903 -3.95675 25585 ft 452 kts 19°
2026-05-04 18:22 37.80760 -3.93984 25931 ft 455 kts 19°
2026-05-04 18:22 37.83632 -3.92284 26275 ft 457 kts 19°
2026-05-04 18:23 37.86516 -3.90575 26579 ft 460 kts 19°
2026-05-04 18:23 37.89424 -3.88850 26962 ft 462 kts 19°
2026-05-04 18:23 37.92339 -3.87119 27273 ft 464 kts 19°
2026-05-04 18:23 37.95272 -3.85377 27566 ft 467 kts 19°
2026-05-04 18:24 37.98223 -3.83622 27875 ft 469 kts 19°
2026-05-04 18:24 38.01186 -3.81858 28172 ft 471 kts 19°
2026-05-04 18:24 38.04163 -3.80084 28433 ft 474 kts 19°
2026-05-04 18:24 38.07152 -3.78302 28702 ft 477 kts 19°
2026-05-04 18:25 38.10166 -3.76503 28983 ft 479 kts 19°
2026-05-04 18:25 38.13185 -3.74699 29303 ft 481 kts 19°
2026-05-04 18:25 38.16213 -3.72888 29566 ft 483 kts 19°
2026-05-04 18:25 38.19263 -3.71062 29816 ft 485 kts 19°
2026-05-04 18:26 38.22321 -3.69230 30052 ft 487 kts 19°
2026-05-04 18:26 38.25387 -3.67391 30277 ft 488 kts 19°
2026-05-04 18:26 38.28461 -3.65545 30554 ft 488 kts 19°
2026-05-04 18:26 38.31533 -3.63698 30848 ft 488 kts 19°
2026-05-04 18:27 38.34601 -3.61852 31144 ft 488 kts 19°
2026-05-04 18:27 38.37668 -3.60006 31447 ft 487 kts 19°
2026-05-04 18:27 38.40724 -3.58164 31731 ft 486 kts 19°
2026-05-04 18:27 38.43786 -3.56317 31960 ft 487 kts 19°
2026-05-04 18:28 38.46850 -3.54468 32177 ft 487 kts 19°
2026-05-04 18:28 38.49912 -3.52618 32456 ft 487 kts 19°
2026-05-04 18:28 38.52971 -3.50767 32753 ft 486 kts 19°
2026-05-04 18:28 38.56024 -3.48919 32976 ft 486 kts 19°
2026-05-04 18:29 38.59080 -3.47068 33213 ft 487 kts 19°
2026-05-04 18:29 38.62139 -3.45213 33536 ft 486 kts 19°
2026-05-04 18:29 38.65193 -3.43359 33816 ft 485 kts 19°
2026-05-04 18:29 38.68243 -3.41506 33938 ft 488 kts 19°
2026-05-04 18:30 38.74392 -3.37766 34283 ft 489 kts 19°
2026-05-04 18:30 38.77461 -3.35894 34549 ft 487 kts 19°
2026-05-04 18:30 38.80520 -3.34027 34737 ft 487 kts 19°
2026-05-04 18:31 38.83578 -3.32160 34899 ft 488 kts 19°
2026-05-04 18:31 38.86646 -3.30285 35117 ft 488 kts 19°
2026-05-04 18:31 38.89704 -3.28414 35342 ft 487 kts 19°
2026-05-04 18:31 38.92759 -3.26543 35528 ft 486 kts 19°
2026-05-04 18:32 38.95817 -3.24669 35678 ft 487 kts 19°
2026-05-04 18:32 38.98875 -3.22794 35837 ft 487 kts 19°
2026-05-04 18:32 39.01953 -3.21009 36017 ft 484 kts 15°
2026-05-04 18:32 39.05084 -3.19437 36189 ft 481 kts 13°
2026-05-04 18:33 39.08230 -3.17971 36361 ft 481 kts 13°
2026-05-04 18:33 39.11381 -3.16526 36533 ft 480 kts 13°
2026-05-04 18:33 39.14520 -3.15070 36705 ft 480 kts 13°
2026-05-04 18:33 39.17659 -3.13587 36841 ft 481 kts 13°
2026-05-04 18:34 39.20796 -3.12083 36954 ft 482 kts 13°
2026-05-04 18:34 39.27089 -3.09033 36969 ft 484 kts 14°
2026-05-04 18:35 39.33375 -3.05973 36997 ft 482 kts 14°
2026-05-04 18:35 39.39638 -3.02928 36977 ft 480 kts 14°
2026-05-04 18:36 39.45908 -2.99856 36970 ft 478 kts 14°
2026-05-04 18:36 39.52126 -2.96791 36969 ft 477 kts 14°
2026-05-04 18:37 39.58332 -2.93731 36979 ft 477 kts 14°
2026-05-04 18:37 39.64540 -2.90674 36971 ft 478 kts 14°
2026-05-04 18:38 39.70757 -2.87615 36973 ft 478 kts 14°
2026-05-04 18:38 39.76985 -2.84543 36977 ft 479 kts 14°
2026-05-04 18:39 39.83234 -2.81453 36985 ft 480 kts 14°
2026-05-04 18:39 39.89485 -2.78354 36958 ft 482 kts 14°
2026-05-04 18:40 39.95752 -2.75241 36964 ft 482 kts 14°
2026-05-04 18:40 40.02023 -2.72121 36972 ft 483 kts 15°
2026-05-04 18:41 40.08311 -2.68986 36979 ft 484 kts 15°
2026-05-04 18:41 40.14602 -2.65844 36948 ft 484 kts 15°
2026-05-04 18:42 40.20895 -2.62693 36956 ft 485 kts 15°
2026-05-04 18:42 40.27199 -2.59531 36951 ft 486 kts 15°
2026-05-04 18:43 40.33547 -2.56340 36958 ft 486 kts 15°
2026-05-04 18:43 40.39810 -2.52954 36944 ft 489 kts 20°
2026-05-04 18:44 40.45903 -2.48961 36975 ft 490 kts 22°
2026-05-04 18:44 40.51967 -2.44881 36964 ft 489 kts 22°
2026-05-04 18:45 40.58046 -2.40845 36963 ft 489 kts 21°
2026-05-04 18:45 40.64123 -2.36844 36962 ft 488 kts 21°
2026-05-04 18:46 40.70197 -2.32845 36962 ft 488 kts 21°
2026-05-04 18:46 40.76260 -2.28842 36962 ft 487 kts 22°
2026-05-04 18:47 40.82315 -2.24833 36973 ft 487 kts 21°
2026-05-04 18:47 40.88361 -2.20823 36976 ft 486 kts 22°
2026-05-04 18:48 40.94404 -2.16805 36982 ft 486 kts 22°
2026-05-04 18:48 40.99427 -2.13458 36971 ft 486 kts 22°
2026-05-04 18:49 41.05471 -2.09426 36975 ft 486 kts 22°
2026-05-04 18:49 41.11403 -2.05078 36999 ft 489 kts 27°
2026-05-04 18:50 41.17240 -2.00159 36978 ft 491 kts 29°
2026-05-04 18:50 41.23024 -1.95220 36971 ft 491 kts 28°
2026-05-04 18:51 41.28794 -1.90346 36947 ft 491 kts 28°
2026-05-04 18:51 41.34572 -1.85493 36987 ft 491 kts 29°
2026-05-04 18:52 41.40353 -1.80636 36974 ft 492 kts 29°
2026-05-04 18:52 41.46138 -1.75762 36970 ft 492 kts 29°
2026-05-04 18:53 41.51913 -1.70884 36968 ft 491 kts 29°
2026-05-04 18:53 41.57682 -1.66000 36980 ft 491 kts 29°
2026-05-04 18:54 41.63489 -1.61072 36979 ft 490 kts 29°
2026-05-04 18:54 41.69240 -1.56181 36984 ft 490 kts 29°
2026-05-04 18:55 41.74945 -1.51320 36968 ft 488 kts 29°
2026-05-04 18:55 41.83529 -1.43985 36972 ft 488 kts 30°
2026-05-04 18:56 41.89287 -1.39052 36970 ft 488 kts 30°
2026-05-04 18:56 41.94997 -1.34149 36985 ft 487 kts 30°
2026-05-04 18:57 42.00711 -1.29232 36984 ft 488 kts 30°
2026-05-04 18:57 42.06421 -1.24308 36971 ft 488 kts 30°
2026-05-04 18:58 42.12045 -1.19175 36968 ft 490 kts 36°
2026-05-04 18:58 42.17297 -1.13308 36956 ft 491 kts 39°
2026-05-04 18:59 42.22500 -1.07347 36970 ft 491 kts 38°
2026-05-04 18:59 42.27787 -1.01407 36972 ft 491 kts 38°
2026-05-04 19:00 42.32770 -0.95849 36939 ft 483 kts 38°
2026-05-04 19:00 42.35313 -0.93005 36933 ft 464 kts 38°
2026-05-04 19:00 42.37784 -0.90238 36922 ft 447 kts 38°
2026-05-04 19:01 42.40137 -0.87600 36930 ft 432 kts 38°
2026-05-04 19:01 42.42398 -0.85023 36928 ft 418 kts 42°
2026-05-04 19:01 42.44340 -0.82193 36906 ft 403 kts 52°
2026-05-04 19:01 42.46021 -0.79238 36754 ft 392 kts 52°
2026-05-04 19:02 42.47708 -0.76272 35750 ft 406 kts 52°
2026-05-04 19:02 42.49494 -0.73148 34450 ft 433 kts 53°
2026-05-04 19:02 42.51144 -0.69649 33822 ft 445 kts 67°
2026-05-04 19:02 42.52676 -0.66042 33965 ft 437 kts 57°
2026-05-04 19:03 42.56445 -0.59668 33953 ft 430 kts 49°
2026-05-04 19:03 42.60300 -0.53559 33924 ft 423 kts 52°
2026-05-04 19:04 42.63860 -0.47285 33958 ft 415 kts 54°
2026-05-04 19:04 42.67330 -0.41094 33941 ft 408 kts 54°
2026-05-04 19:05 42.70772 -0.35034 33940 ft 401 kts 53°
2026-05-04 19:05 42.74163 -0.29093 33904 ft 394 kts 53°
2026-05-04 19:06 42.77484 -0.23256 33874 ft 386 kts 54°
2026-05-04 19:06 42.80729 -0.17495 33643 ft 385 kts 54°
2026-05-04 19:07 42.82372 -0.14585 33363 ft 389 kts 54°
2026-05-04 19:07 42.84032 -0.11654 33112 ft 393 kts 54°
2026-05-04 19:07 42.85678 -0.08675 32999 ft 392 kts 58°
2026-05-04 19:07 42.86812 -0.05353 32517 ft 392 kts 86°
2026-05-04 19:08 42.86612 -0.01617 31479 ft 388 kts 109°
2026-05-04 19:08 42.85955 0.01913 31445 ft 384 kts 114°
2026-05-04 19:08 42.85108 0.05407 31097 ft 390 kts 116°
2026-05-04 19:08 42.84152 0.08622 31976 ft 352 kts 122°
2026-05-04 19:09 42.83048 0.11600 31647 ft 354 kts 129°
2026-05-04 19:09 42.81668 0.14379 31495 ft 349 kts 139°
2026-05-04 19:09 42.79951 0.16679 31329 ft 347 kts 141°
2026-05-04 19:09 42.78082 0.18609 31308 ft 333 kts 164°
2026-05-04 19:10 42.75989 0.20083 31047 ft 340 kts 156°